When you browse on this site, cookies collect data to enhance your experience and personalize the content and advertising you see.
Visit our Privacy Policy to learn more. By continuing to use the site, you agree to this use of cookies and data.
  • In Deutschland
  • Länderverzeichnis
  • Für 7 Tage
  • Wassertemperatur
  • Wetterkarte
  • Widgets
  • user-avatar
    Anmelden

    Stündliche Wetter Orscha

    Heute, 2 Juni, Dienstag

    Zeit Temperatur Niederschläge Wind Luftdruck Luftfeuchtigkeit
    00:00 +7°C° 0.5 mm 8 m/S 740 mmHg 94%
    01:00 +6°C° 0.5 mm 8 m/S 740 mmHg 94%
    02:00 +6°C° 0.5 mm 9 m/S 740 mmHg 94%
    03:00 +6°C° 1 mm 9 m/S 739 mmHg 94%
    04:00 +6°C° 1 mm 9 m/S 739 mmHg 94%
    05:00 +6°C° 1 mm 9 m/S 739 mmHg 94%
    06:00 +6°C° 0.8 mm 9 m/S 739 mmHg 94%
    07:00 +6°C° 0.8 mm 9 m/S 739 mmHg 93%
    08:00 +6°C° 0.8 mm 10 m/S 739 mmHg 93%
    09:00 +6°C° 0.6 mm 9 m/S 739 mmHg 93%
    10:00 +6°C° 0.6 mm 9 m/S 739 mmHg 94%
    11:00 +6°C° 0.6 mm 9 m/S 739 mmHg 94%
    12:00 +7°C° 0.4 mm 9 m/S 739 mmHg 93%
    13:00 +7°C° 0.4 mm 9 m/S 739 mmHg 93%
    14:00 +7°C° 0.4 mm 9 m/S 739 mmHg 93%
    15:00 +7°C° 0.7 mm 8 m/S 739 mmHg 93%
    16:00 +9°C° 0.7 mm 7 m/S 739 mmHg 94%
    17:00 +9°C° 0.7 mm 6 m/S 739 mmHg 95%
    18:00 +9°C° 0.2 mm 6 m/S 739 mmHg 95%
    19:00 +9°C° 0.2 mm 5 m/S 739 mmHg 95%
    20:00 +9°C° 0.2 mm 5 m/S 739 mmHg 95%
    21:00 +8°C° 0 mm 4 m/S 739 mmHg 96%
    22:00 +7°C° 0 mm 4 m/S 739 mmHg 97%
    23:00 +8°C° 0 mm 3 m/S 739 mmHg 97%

    Morgen, 3 Juni, Mittwoch

    Zeit Temperatur Niederschläge Wind Luftdruck Luftfeuchtigkeit
    00:00 +7°C° 0 mm 3 m/S 739 mmHg 97%
    01:00 +7°C° 0 mm 3 m/S 739 mmHg 97%
    02:00 +5°C° 0 mm 3 m/S 739 mmHg 96%
    03:00 +5°C° 0 mm 3 m/S 739 mmHg 96%
    04:00 +7°C° 0 mm 3 m/S 739 mmHg 96%
    05:00 +7°C° 0 mm 3 m/S 739 mmHg 95%
    06:00 +8°C° 0 mm 3 m/S 739 mmHg 92%
    07:00 +10°C° 0 mm 3 m/S 739 mmHg 88%
    08:00 +12°C° 0 mm 4 m/S 739 mmHg 84%
    09:00 +13°C° 0 mm 4 m/S 739 mmHg 79%
    10:00 +14°C° 0 mm 4 m/S 739 mmHg 74%
    11:00 +15°C° 0 mm 5 m/S 739 mmHg 69%
    12:00 +16°C° 0.1 mm 5 m/S 738 mmHg 67%
    13:00 +17°C° 0.1 mm 4 m/S 738 mmHg 66%
    14:00 +18°C° 0.1 mm 4 m/S 738 mmHg 65%
    15:00 +18°C° 0.1 mm 4 m/S 738 mmHg 67%
    16:00 +17°C° 0.1 mm 4 m/S 737 mmHg 69%
    17:00 +17°C° 0.1 mm 4 m/S 737 mmHg 71%
    18:00 +16°C° 0.1 mm 3 m/S 737 mmHg 76%
    19:00 +13°C° 0.1 mm 3 m/S 737 mmHg 82%
    20:00 +12°C° 0.1 mm 3 m/S 737 mmHg 87%
    21:00 +12°C° 0 mm 2 m/S 737 mmHg 89%
    22:00 +10°C° 0 mm 2 m/S 737 mmHg 90%
    23:00 +9°C° 0 mm 2 m/S 737 mmHg 92%

    übermorgen, 4 Juni, Donnerstag

    Zeit Temperatur Niederschläge Wind Luftdruck Luftfeuchtigkeit
    00:00 +9°C° 0 mm 2 m/S 737 mmHg 93%
    01:00 +8°C° 0 mm 2 m/S 737 mmHg 93%
    02:00 +8°C° 0 mm 2 m/S 737 mmHg 94%
    03:00 +9°C° 0 mm 2 m/S 736 mmHg 94%
    04:00 +9°C° 0 mm 2 m/S 736 mmHg 94%
    05:00 +9°C° 0 mm 2 m/S 736 mmHg 93%
    06:00 +11°C° 0.1 mm 3 m/S 736 mmHg 91%
    07:00 +12°C° 0.1 mm 4 m/S 736 mmHg 88%
    08:00 +13°C° 0.1 mm 4 m/S 736 mmHg 85%
    09:00 +14°C° 0.2 mm 4 m/S 736 mmHg 81%
    10:00 +15°C° 0.2 mm 5 m/S 736 mmHg 77%
    11:00 +15°C° 0.2 mm 5 m/S 735 mmHg 73%
    12:00 +16°C° 0.3 mm 5 m/S 735 mmHg 72%
    13:00 +16°C° 0.3 mm 5 m/S 735 mmHg 71%
    14:00 +16°C° 0.3 mm 6 m/S 735 mmHg 69%
    15:00 +16°C° 0.5 mm 5 m/S 735 mmHg 73%
    16:00 +15°C° 0.5 mm 5 m/S 735 mmHg 76%
    17:00 +15°C° 0.5 mm 5 m/S 735 mmHg 80%
    18:00 +14°C° 0.3 mm 5 m/S 735 mmHg 83%
    19:00 +13°C° 0.3 mm 4 m/S 735 mmHg 87%
    20:00 +12°C° 0.3 mm 3 m/S 735 mmHg 90%
    21:00 +11°C° 0 mm 3 m/S 735 mmHg 92%
    22:00 +11°C° 0 mm 3 m/S 735 mmHg 93%
    23:00 +10°C° 0 mm 3 m/S 735 mmHg 95%

    5 Juni, Freitag

    Zeit Temperatur Niederschläge Wind Luftdruck Luftfeuchtigkeit
    00:00 +10°C° 0 mm 3 m/S 735 mmHg 95%
    01:00 +10°C° 0 mm 3 m/S 736 mmHg 96%
    02:00 +9°C° 0 mm 3 m/S 736 mmHg 96%
    03:00 +9°C° 0 mm 3 m/S 736 mmHg 96%
    04:00 +9°C° 0 mm 3 m/S 736 mmHg 96%
    05:00 +9°C° 0 mm 3 m/S 736 mmHg 96%
    06:00 +11°C° 0 mm 3 m/S 736 mmHg 93%
    07:00 +12°C° 0 mm 4 m/S 737 mmHg 90%
    08:00 +14°C° 0 mm 4 m/S 737 mmHg 87%
    09:00 +15°C° 0.1 mm 4 m/S 737 mmHg 82%
    10:00 +18°C° 0.1 mm 4 m/S 737 mmHg 76%
    11:00 +19°C° 0.1 mm 4 m/S 737 mmHg 71%
    12:00 +20°C° 0 mm 4 m/S 737 mmHg 68%
    13:00 +21°C° 0 mm 3 m/S 737 mmHg 66%
    14:00 +21°C° 0 mm 3 m/S 737 mmHg 64%
    15:00 +21°C° 0.3 mm 3 m/S 737 mmHg 68%
    16:00 +21°C° 0.3 mm 3 m/S 737 mmHg 72%
    17:00 +21°C° 0.3 mm 3 m/S 737 mmHg 76%
    18:00 +20°C° 0.9 mm 3 m/S 737 mmHg 81%
    19:00 +18°C° 0.9 mm 3 m/S 737 mmHg 86%
    20:00 +17°C° 0.9 mm 3 m/S 737 mmHg 91%
    21:00 +17°C° 0.5 mm 3 m/S 737 mmHg 93%
    22:00 +17°C° 0.5 mm 4 m/S 737 mmHg 94%
    23:00 +15°C° 0.5 mm 4 m/S 737 mmHg 96%

    6 Juni, Samstag

    Zeit Temperatur Niederschläge Wind Luftdruck Luftfeuchtigkeit
    00:00 +15°C° 0.7 mm 4 m/S 737 mmHg 96%
    01:00 +15°C° 0.7 mm 4 m/S 737 mmHg 96%
    02:00 +15°C° 0.7 mm 4 m/S 737 mmHg 96%
    03:00 +16°C° 0 mm 3 m/S 737 mmHg 97%
    04:00 +16°C° 0 mm 3 m/S 737 mmHg 97%
    05:00 +16°C° 0 mm 3 m/S 737 mmHg 97%
    06:00 +17°C° 0 mm 3 m/S 737 mmHg 94%
    07:00 +19°C° 0 mm 4 m/S 738 mmHg 91%
    08:00 +20°C° 0 mm 4 m/S 738 mmHg 88%
    09:00 +21°C° 0.4 mm 5 m/S 738 mmHg 84%
    10:00 +23°C° 0.4 mm 6 m/S 738 mmHg 80%
    11:00 +24°C° 0.4 mm 7 m/S 738 mmHg 75%
    12:00 +24°C° 0.4 mm 7 m/S 737 mmHg 76%
    13:00 +24°C° 0.4 mm 7 m/S 737 mmHg 77%
    14:00 +24°C° 0.4 mm 7 m/S 737 mmHg 77%
    15:00 +23°C° 0.9 mm 7 m/S 737 mmHg 80%
    16:00 +23°C° 0.9 mm 6 m/S 737 mmHg 83%
    17:00 +22°C° 0.9 mm 5 m/S 737 mmHg 86%
    18:00 +21°C° 0.2 mm 5 m/S 737 mmHg 88%
    19:00 +19°C° 0.2 mm 4 m/S 738 mmHg 91%
    20:00 +18°C° 0.2 mm 3 m/S 738 mmHg 93%
    21:00 +17°C° 0 mm 3 m/S 739 mmHg 93%
    22:00 +16°C° 0 mm 3 m/S 739 mmHg 94%
    23:00 +13°C° 0 mm 3 m/S 740 mmHg 94%

    7 Juni, Sonntag

    Zeit Temperatur Niederschläge Wind Luftdruck Luftfeuchtigkeit
    00:00 +12°C° 0 mm 3 m/S 741 mmHg 94%
    01:00 +13°C° 0 mm 2 m/S 741 mmHg 95%
    02:00 +12°C° 0 mm 2 m/S 741 mmHg 95%
    03:00 +12°C° 0 mm 1 m/S 742 mmHg 94%
    04:00 +12°C° 0 mm 1 m/S 742 mmHg 93%
    05:00 +12°C° 0 mm 1 m/S 743 mmHg 92%
    06:00 +14°C° 0 mm 1 m/S 743 mmHg 88%
    07:00 +15°C° 0 mm 1 m/S 744 mmHg 84%
    08:00 +18°C° 0 mm 1 m/S 744 mmHg 80%
    09:00 +19°C° 0 mm 1 m/S 744 mmHg 75%
    10:00 +20°C° 0 mm 1 m/S 745 mmHg 70%
    11:00 +21°C° 0 mm 1 m/S 745 mmHg 65%
    12:00 +22°C° 0 mm 1 m/S 745 mmHg 63%
    13:00 +23°C° 0 mm 1 m/S 745 mmHg 61%
    14:00 +23°C° 0 mm 1 m/S 745 mmHg 58%
    15:00 +23°C° 0 mm 1 m/S 745 mmHg 59%
    16:00 +23°C° 0 mm 1 m/S 745 mmHg 60%
    17:00 +23°C° 0 mm 1 m/S 745 mmHg 62%
    18:00 +22°C° 0 mm 1 m/S 745 mmHg 67%
    19:00 +20°C° 0 mm 1 m/S 745 mmHg 72%
    20:00 +18°C° 0 mm 2 m/S 745 mmHg 78%
    21:00 +18°C° 0 mm 1 m/S 745 mmHg 80%
    22:00 +16°C° 0 mm 1 m/S 745 mmHg 82%
    23:00 +15°C° 0 mm 1 m/S 746 mmHg 85%
    Mehr zeigen